Regional Weather Roundup
Issued by NWS Sioux Falls, SD

Home | Current Version | Previous Version | Text Only | Print | Product List | Glossary On
Versions: 1 2 3 4 5 6 7 8 9 10 11 12 13 14 15 16 17 18 19 20 21 22 23 24 25 26 27 28 29 30 31 32 33 34 35 36 37 38 39 40 41 42 43 44 45 46 47 48 49 50
117
ASUS43 KFSD 271710
RWRFSD

WEATHER ROUNDUP FOR SE SOUTH DAKOTA/SW MINNESOTA/NW IOWA
NATIONAL WEATHER SERVICE SIOUX FALLS SD
1200 PM CDT MON MAR 27 2017

NOTE: "FAIR" INDICATES FEW OR NO CLOUDS BELOW 12,000 FEET WITH NO
SIGNIFICANT WEATHER AND OR OBSTRUCTIONS TO VISIBILITY.


SDZ038>040-050-052>070-271800-
SOUTHEAST SOUTH DAKOTA

CITY           SKY/WX    TMP DP  RH WIND       PRES   REMARKS
BROOKINGS      MOSUNNY   48  39  71 VRB3      29.97S
CHAMBERLAIN    CLOUDY    50  46  86 E6        29.96F
HURON          CLOUDY    51  40  65 SE5       29.97S
MADISON        PTSUNNY   46  46 100 CALM      29.98S
MITCHELL       MOSUNNY   50  39  66 CALM      29.99S
SIOUX FALLS    PTSUNNY   53  37  54 E6        29.98F
WINNER         FAIR      54  39  57 SE8       29.94F
YANKTON        MOSUNNY   50  37  62 NE6       29.98F
$$

MNZ071-072-080-081-089-090-097-098-271800-
SOUTHWEST MINNESOTA

CITY           SKY/WX    TMP DP  RH WIND       PRES   REMARKS
FAIRMONT       CLOUDY    44  38  79 N12       29.98S
JACKSON        CLOUDY    45  37  76 N7        29.98S
LUVERNE        CLOUDY    45  34  65 NE5       29.99S
MARSHALL       CLOUDY    47  37  68 W3        30.00S
MONTEVIDEO     CLOUDY    54  39  58 CALM      30.01S
PIPESTONE      PTSUNNY   46  36  66 CALM      29.98S
REDWOOD FALLS  PTSUNNY   52  37  56 CALM      29.98S
TRACY          CLOUDY    48  39  71 CALM      29.99S
WINDOM         SUNNY     46  37  71 N3        29.98F
WORTHINGTON    CLOUDY    44  36  73 NE7       29.99S
$$

IAZ001>003-012>014-020>022-031-032-NEZ013-014-SDZ071-271800-
NORTHWEST IOWA

CITY           SKY/WX    TMP DP  RH WIND       PRES   REMARKS
CHEROKEE       CLOUDY    48  39  72 NE7       29.98S
DENISON        CLOUDY    46  39  76 N10       29.98F
ESTHERVILLE    CLOUDY    45  38  76 N7        29.97S
LE MARS        CLOUDY    50  39  66 N7        29.99S
ORANGE CITY    PTSUNNY   48  39  71 N5        29.98S
SHELDON        CLOUDY    46 N/A N/A NE7       29.97S
SIOUX CITY     CLOUDY    50  40  68 CALM      29.98S
SPENCER        CLOUDY    47  39  74 N8        29.98S
$$

ABBREVIATIONS USED IN REMARKS
   TC - TEMPERATURE IN CELSIUS
  WCI - WIND CHILL INDEX
   HX - HEAT INDEX
  VSB - VISIBILITY





USA.gov is the U.S. government's official web portal to all federal, state and local government web resources and services.